Weather History for KCRW - February, 2014

Change the Weather History Date:

Tuesday, February 25, 2014

  Actual Average Record
Temperature  
Mean Temperature 30 °F 40 °F  
Max Temperature 34 °F 49 °F 76 °F (2000)
Min Temperature 26 °F 30 °F 1 °F (1967)
Degree Days  
Heating Degree Days 35 25  
Month to date heating degree days 748 692  
Since 1 July heating degree days 3650 3380  
Cooling Degree Days 0 0  
Month to date cooling degree days 0 0  
Year to date cooling degree days 0 0  
Moisture  
Dew Point 20 °F    
Average Humidity 67    
Maximum Humidity 78    
Minimum Humidity 56    
Precipitation  
Precipitation T in 0.13 in 0.95 in (1902)
Month to date precipitation 4.42 2.83  
Year to date precipitation 6.92 5.83  
Snow  
Snow T in - - ()
Month to date snowfall 12.1  
Since 1 September snowfall 35.9  
Snow Depth 0.00 in    
Sea Level Pressure  
Sea Level Pressure 30.12 in    
Wind  
Wind Speed 3 mph (NNW)    
Max Wind Speed 12 mph    
Max Gust Speed 17 mph    
Visibility 9 miles    
Events Snow    
T = Trace of Precipitation, MM = Missing Value Source: NWS Daily Summary

Daily Weather History Graph

Daily Weather History Graph

Search for Another Location

Airport or City:

Trip Planner

Search our weather history database for the weather conditions in past years. The results will help you decide how hot, cold, wet, or windy it might be!

Date:

Astronomy

Feb. 25, 2014 Rise Set
Actual Time 7:03 AM EST 6:15 PM EST
Civil Twilight 6:37 AM EST 6:42 PM EST
Nautical Twilight 6:06 AM EST 7:12 PM EST
Astronomical Twilight 5:36 AM EST 7:43 PM EST
Moon 3:55 AM EST (2/25) 2:21 PM EST (2/25)
Length of Visible Light 12h 04m
Length of Day
11h 11m
Waning Crescent, 18% of the Moon is Illuminated
Feb 25
Waning Crescent
Mar 1
New
Mar 8
First Quarter
Mar 16
Full
Mar 23
Last Quarter

Hourly Weather History & Observations

Time (EST) Temp. Windchill Dew Point Humidity Pressure Visibility Wind Dir Wind Speed Gust Speed Precip Events Conditions
12:54 AM 30.0 °F - 19.9 °F 66% 30.15 in 10.0 mi Calm Calm - N/A   Overcast
1:54 AM 30.0 °F - 19.9 °F 66% 30.15 in 10.0 mi Calm Calm - N/A   Overcast
2:54 AM 28.9 °F - 21.0 °F 72% 30.13 in 10.0 mi Calm Calm - N/A   Overcast
3:54 AM 30.0 °F - 19.0 °F 64% 30.11 in 10.0 mi Calm Calm - N/A   Overcast
4:54 AM 28.9 °F - 23.0 °F 78% 30.11 in 10.0 mi Calm Calm - N/A   Overcast
5:54 AM 28.9 °F 21.1 °F 17.1 °F 61% 30.13 in 10.0 mi North 8.1 mph - N/A   Overcast
6:54 AM 28.9 °F - 18.0 °F 64% 30.14 in 10.0 mi Calm Calm - N/A   Overcast
7:54 AM 28.0 °F 20.0 °F 19.9 °F 72% 30.16 in 10.0 mi NNE 8.1 mph - N/A   Overcast
8:54 AM 28.0 °F 24.2 °F 19.9 °F 72% 30.18 in 6.0 mi NW 3.5 mph - 0.00 in Snow Light Snow
9:37 AM 27.0 °F 21.6 °F 21.0 °F 78% 30.16 in 4.0 mi NNW 4.6 mph - 0.00 in Snow Light Snow
9:54 AM 28.0 °F 22.8 °F 23.0 °F 81% 30.18 in 3.0 mi NNW 4.6 mph - 0.00 in Snow Light Snow
10:22 AM 28.0 °F 20.0 °F 23.0 °F 81% 30.16 in 2.0 mi NNW 8.1 mph - 0.00 in Snow Light Snow
10:54 AM 28.0 °F 21.7 °F 21.9 °F 78% 30.18 in 2.0 mi North 5.8 mph - 0.00 in Snow Light Snow
11:13 AM 28.9 °F 22.8 °F 23.0 °F 78% 30.15 in 5.0 mi NNW 5.8 mph - 0.00 in Snow Light Snow
11:54 AM 30.0 °F 26.5 °F 23.0 °F 75% 30.17 in 9.0 mi Variable 3.5 mph - 0.00 in Snow Light Snow
12:54 PM 30.9 °F 23.5 °F 21.0 °F 67% 30.15 in 10.0 mi West 8.1 mph - 0.00 in Snow Light Snow
1:54 PM 32.0 °F 24.2 °F 21.0 °F 64% 30.13 in 9.0 mi NW 9.2 mph - 0.00 in   Overcast
2:54 PM 32.0 °F 25.6 °F 19.0 °F 59% 30.12 in 10.0 mi West 6.9 mph - 0.00 in   Overcast
3:28 PM 32.0 °F 24.2 °F 19.0 °F 59% 30.08 in 10.0 mi NW 9.2 mph - N/A   Overcast
3:54 PM 33.1 °F 25.5 °F 19.0 °F 56% 30.10 in 10.0 mi NW 9.2 mph - N/A   Overcast
4:54 PM 32.0 °F 27.5 °F 19.0 °F 59% 30.08 in 10.0 mi North 4.6 mph - N/A   Mostly Cloudy
5:54 PM 32.0 °F 26.4 °F 19.0 °F 59% 30.09 in 10.0 mi Variable 5.8 mph - N/A   Mostly Cloudy
6:54 PM 30.0 °F - 19.0 °F 64% 30.09 in 10.0 mi Calm Calm - N/A   Mostly Cloudy
7:54 PM 30.0 °F - 19.9 °F 66% 30.09 in 10.0 mi Calm Calm - N/A   Mostly Cloudy
8:54 PM 30.0 °F 26.5 °F 19.9 °F 66% 30.08 in 10.0 mi SSE 3.5 mph - N/A   Mostly Cloudy
9:54 PM 30.0 °F - 19.9 °F 66% 30.08 in 10.0 mi Calm Calm - N/A   Overcast
10:54 PM 30.0 °F - 21.9 °F 72% 30.07 in 10.0 mi Calm Calm - N/A   Overcast
11:54 PM 30.0 °F - 21.0 °F 69% 30.04 in 10.0 mi Calm Calm - 0.00 in Snow Light Snow